Weather History for Greenville Downtown, SC

Change the Weather History Date:

Thursday, February 28, 2013

  Actual Average Record
Temperature  
Mean Temperature 43 °F -  
Max Temperature 50 °F 56 °F 73 °F (2011)
Min Temperature 36 °F 37 °F 19 °F (2002)
Degree Days  
Heating Degree Days 22    
Moisture  
Dew Point 24 °F    
Average Humidity 48    
Maximum Humidity 59    
Minimum Humidity 33    
Precipitation  
Precipitation 0.00 in - - ()
Sea Level Pressure  
Sea Level Pressure 29.83 in    
Wind  
Wind Speed 11 mph (West)    
Max Wind Speed 15 mph    
Max Gust Speed 25 mph    
Visibility 10 miles    
Events      
Averages and records for this station are not official NWS values.
T = Trace of Precipitation, MM = Missing Value Source: NWS Daily Summary

Daily Weather History Graph

Daily Weather History Graph

Search for Another Location

Airport:

Trip Planner

Search our weather history database for the weather conditions in past years. The results will help you decide how hot, cold, wet, or windy it might be!

Date:

Astronomy

Feb. 28, 2013 Rise Set
Actual Time 6:59 AM EST 6:24 PM EST
Civil Twilight 6:34 AM EST 6:49 PM EST
Nautical Twilight 6:05 AM EST 7:19 PM EST
Astronomical Twilight 5:35 AM EST 7:48 PM EST
Moon 9:39 PM EST (2/28) 8:17 AM EST (2/28)
Length of Visible Light 12h 15m
Length of Day
11h 24m
Waning Gibbous, 91% of the Moon is Illuminated
Feb 28
Waning Gibbous
Mar 4
Last Quarter
Mar 11
New
Mar 19
First Quarter
Mar 27
Full

Hourly Weather History & Observations

Time (EST) Temp. Windchill Dew Point Humidity Pressure Visibility Wind Dir Wind Speed Gust Speed Precip Events Conditions
1:53 AM 45.0 °F 38.9 °F 30.9 °F 58% 29.77 in 10.0 mi WSW 12.7 mph 20.7 mph N/A   Clear
2:53 AM 44.1 °F 37.7 °F 26.1 °F 49% 29.75 in 10.0 mi WSW 12.7 mph 20.7 mph N/A   Clear
3:53 AM 42.1 °F 36.1 °F 27.0 °F 55% 29.75 in 10.0 mi WSW 10.4 mph 18.4 mph N/A   Clear
4:53 AM 41.0 °F 34.3 °F 26.1 °F 55% 29.76 in 10.0 mi West 11.5 mph - N/A   Clear
5:53 AM 39.9 °F 32.9 °F 26.1 °F 58% 29.77 in 10.0 mi WSW 11.5 mph - N/A   Clear
6:53 AM 37.9 °F 33.5 °F 23.0 °F 55% 29.78 in 10.0 mi West 5.8 mph - N/A   Clear
7:53 AM 39.0 °F 31.0 °F 23.0 °F 53% 29.80 in 10.0 mi West 13.8 mph - N/A   Clear
8:53 AM 42.1 °F 38.4 °F 23.0 °F 47% 29.83 in 10.0 mi West 5.8 mph - N/A   Overcast
9:53 AM 44.1 °F 39.0 °F 23.0 °F 43% 29.83 in 10.0 mi West 9.2 mph - N/A   Overcast
10:53 AM 46.0 °F 40.2 °F 24.1 °F 42% 29.82 in 10.0 mi West 12.7 mph 17.3 mph N/A   Overcast
11:53 AM 48.9 °F - 24.1 °F 38% 29.83 in 10.0 mi WSW 12.7 mph - N/A   Partly Cloudy
12:53 PM 48.9 °F - 23.0 °F 36% 29.82 in 10.0 mi West 10.4 mph - N/A   Overcast
1:53 PM 50.0 °F - 21.9 °F 33% 29.81 in 10.0 mi West 9.2 mph 20.7 mph N/A   Mostly Cloudy
2:53 PM 50.0 °F - 23.0 °F 35% 29.81 in 10.0 mi West 12.7 mph 21.9 mph N/A   Mostly Cloudy
4:53 PM 46.9 °F - 21.9 °F 37% 29.84 in 10.0 mi West 15.0 mph 25.3 mph N/A   Scattered Clouds
5:53 PM 45.0 °F 38.5 °F 21.9 °F 40% 29.86 in 10.0 mi WSW 13.8 mph 21.9 mph N/A   Partly Cloudy
6:53 PM 42.1 °F 35.2 °F 21.9 °F 45% 29.89 in 10.0 mi West 12.7 mph 19.6 mph N/A   Clear
7:53 PM 39.9 °F 36.7 °F 23.0 °F 51% 29.91 in 10.0 mi NW 4.6 mph - N/A   Clear
8:53 PM 37.9 °F 33.5 °F 23.0 °F 55% 29.91 in 10.0 mi North 5.8 mph - N/A   Clear
9:53 PM 37.9 °F 35.5 °F 21.9 °F 53% 29.92 in 10.0 mi NW 3.5 mph - N/A   Clear
10:53 PM 36.0 °F 32.1 °F 23.0 °F 59% 29.91 in 10.0 mi West 4.6 mph - N/A   Clear
11:53 PM 36.0 °F 31.1 °F 23.0 °F 59% 29.91 in 10.0 mi WNW 5.8 mph - N/A   Clear